Weather History for Bar Harbor, ME

Change the Weather History Date:

Saturday, March 15, 2014

  Actual Average Record
Temperature  
Mean Temperature 38 °F -  
Max Temperature 41 °F 40 °F 49 °F (1978)
Min Temperature 35 °F 23 °F 6 °F (2003)
Degree Days  
Heating Degree Days 27    
Moisture  
Dew Point 36 °F    
Average Humidity 93    
Maximum Humidity 100    
Minimum Humidity 81    
Precipitation  
Precipitation 0.07 in - - ()
Sea Level Pressure  
Sea Level Pressure 29.72 in    
Wind  
Wind Speed 14 mph (SSW)    
Max Wind Speed 20 mph    
Max Gust Speed 28 mph    
Visibility 8 miles    
Events      
Averages and records for this station are not official NWS values.
T = Trace of Precipitation, MM = Missing Value Source: NWS Daily Summary

Daily Weather History Graph

Daily Weather History Graph

Search for Another Location

Airport:

Trip Planner

Search our weather history database for the weather conditions in past years. The results will help you decide how hot, cold, wet, or windy it might be!

Date:

Astronomy

Mar. 15, 2014 Rise Set
Actual Time 6:45 AM EDT 6:39 PM EDT
Civil Twilight 6:16 AM EDT 7:08 PM EDT
Nautical Twilight 5:43 AM EDT 7:42 PM EDT
Astronomical Twilight 5:08 AM EDT 8:16 PM EDT
Moon 5:54 PM EDT (3/15) 5:57 AM EDT (3/15)
Length of Visible Light 12h 51m
Length of Day
11h 53m
Waxing Gibbous, 99% of the Moon is Illuminated
Mar 15
Waxing Gibbous
Mar 16
Full
Mar 23
Last Quarter
Mar 30
New
Apr 7
First Quarter

Hourly Weather History & Observations

Time (EDT) Temp. Windchill Dew Point Humidity Pressure Visibility Wind Dir Wind Speed Gust Speed Precip Events Conditions
12:15 AM 35.6 °F 25.2 °F 30.2 °F 81% 29.89 in 10.0 mi SSW 18.4 mph 25.3 mph N/A   Overcast
12:35 AM 35.6 °F 25.9 °F 30.2 °F 81% 29.89 in 10.0 mi SSW 16.1 mph - N/A   Overcast
12:55 AM 35.6 °F 25.9 °F 30.2 °F 81% 29.89 in 10.0 mi SSW 16.1 mph 27.6 mph N/A   Mostly Cloudy
1:15 AM 35.6 °F 25.9 °F 30.2 °F 81% 29.89 in 10.0 mi SSW 16.1 mph 21.9 mph N/A   Mostly Cloudy
1:35 AM 35.6 °F 25.9 °F 30.2 °F 81% 29.88 in 10.0 mi SSW 16.1 mph 21.9 mph N/A   Overcast
1:55 AM 35.6 °F 25.5 °F 32.0 °F 87% 29.87 in 10.0 mi SSW 17.3 mph 24.2 mph N/A   Overcast
2:15 AM 35.6 °F 25.2 °F 32.0 °F 87% 29.86 in 10.0 mi SSW 18.4 mph 23.0 mph N/A   Overcast
2:35 AM 35.6 °F 25.5 °F 32.0 °F 87% 29.85 in 10.0 mi SSW 17.3 mph - N/A   Overcast
2:55 AM 37.4 °F 27.2 °F 33.8 °F 87% 29.85 in 10.0 mi SSW 19.6 mph 26.5 mph N/A   Overcast
3:15 AM 35.6 °F 25.2 °F 33.8 °F 93% 29.84 in 10.0 mi SSW 18.4 mph - N/A   Overcast
3:35 AM 37.4 °F 27.5 °F 33.8 °F 87% 29.83 in 10.0 mi SSW 18.4 mph 25.3 mph N/A   Overcast
3:55 AM 37.4 °F 27.5 °F 33.8 °F 87% 29.82 in 10.0 mi SSW 18.4 mph 21.9 mph N/A   Overcast
4:15 AM 37.4 °F 28.5 °F 33.8 °F 87% 29.81 in 10.0 mi South 15.0 mph 21.9 mph N/A   Overcast
4:35 AM 37.4 °F 28.2 °F 33.8 °F 87% 29.80 in 10.0 mi South 16.1 mph - N/A   Mostly Cloudy
4:55 AM 37.4 °F 28.2 °F 33.8 °F 87% 29.79 in 10.0 mi South 16.1 mph 21.9 mph N/A   Overcast
5:15 AM 37.4 °F 28.5 °F 35.6 °F 93% 29.78 in 10.0 mi South 15.0 mph 23.0 mph N/A   Overcast
5:35 AM 37.4 °F 28.2 °F 35.6 °F 93% 29.78 in 10.0 mi South 16.1 mph 23.0 mph N/A   Overcast
5:55 AM 39.2 °F 30.8 °F 35.6 °F 87% 29.77 in 10.0 mi South 15.0 mph 23.0 mph N/A   Overcast
6:15 AM 39.2 °F 32.0 °F 35.6 °F 87% 29.76 in 10.0 mi South 11.5 mph 19.6 mph N/A   Overcast
6:35 AM 39.2 °F 31.2 °F 35.6 °F 87% 29.75 in 10.0 mi South 13.8 mph 23.0 mph N/A   Overcast
6:55 AM 39.2 °F 30.8 °F 35.6 °F 87% 29.75 in 10.0 mi South 15.0 mph - N/A   Overcast
7:15 AM 39.2 °F 30.2 °F 37.4 °F 93% 29.75 in 9.0 mi South 17.3 mph 24.2 mph N/A   Overcast
7:35 AM 39.2 °F 30.5 °F 37.4 °F 93% 29.74 in 10.0 mi South 16.1 mph - N/A   Overcast
7:55 AM 39.2 °F 30.8 °F 37.4 °F 93% 29.74 in 9.0 mi SSW 15.0 mph - N/A   Overcast
8:15 AM 39.2 °F 31.2 °F 37.4 °F 93% 29.74 in 8.0 mi South 13.8 mph - N/A   Mostly Cloudy
8:35 AM 39.2 °F 31.2 °F 37.4 °F 93% 29.73 in 9.0 mi SSW 13.8 mph 19.6 mph N/A   Overcast
8:55 AM 39.2 °F 30.8 °F 37.4 °F 93% 29.72 in 8.0 mi South 15.0 mph 19.6 mph N/A   Overcast
9:15 AM 39.2 °F 31.6 °F 37.4 °F 93% 29.72 in 7.0 mi SSW 12.7 mph - N/A   Overcast
9:35 AM 39.2 °F 31.6 °F 37.4 °F 93% 29.71 in 10.0 mi SSW 12.7 mph - N/A   Overcast
9:55 AM 39.2 °F 31.2 °F 37.4 °F 93% 29.71 in 10.0 mi SSW 13.8 mph 18.4 mph N/A   Overcast
10:15 AM 39.2 °F 31.2 °F 37.4 °F 93% 29.70 in 8.0 mi SSW 13.8 mph 17.3 mph N/A   Overcast
10:35 AM 37.4 °F 29.8 °F 37.4 °F 100% 29.70 in 4.0 mi SSW 11.5 mph - 0.02 in   Overcast
10:55 AM 37.4 °F 30.3 °F 35.6 °F 93% 29.69 in 5.0 mi SSW 10.4 mph - 0.03 in   Overcast
11:15 AM 37.4 °F 28.5 °F 35.6 °F 93% 29.69 in 5.0 mi South 15.0 mph - 0.01 in   Overcast
11:35 AM 37.4 °F 30.8 °F 37.4 °F 100% 29.69 in 5.0 mi SSW 9.2 mph - 0.02 in   Overcast
11:55 AM 37.4 °F 32.1 °F 35.6 °F 93% 29.68 in 4.0 mi South 6.9 mph - 0.03 in   Overcast
12:15 PM 39.2 °F 33.6 °F 39.2 °F 100% 29.67 in 5.0 mi South 8.1 mph - N/A   Overcast
12:35 PM 39.2 °F 32.5 °F 39.2 °F 100% 29.66 in 5.0 mi SSW 10.4 mph 18.4 mph N/A   Overcast
12:55 PM 39.2 °F 32.0 °F 39.2 °F 100% 29.66 in 5.0 mi SSW 11.5 mph - N/A   Overcast
1:15 PM 39.2 °F 31.6 °F 39.2 °F 100% 29.65 in 5.0 mi SSW 12.7 mph - N/A   Overcast
1:35 PM 39.2 °F 31.2 °F 39.2 °F 100% 29.65 in 5.0 mi SSW 13.8 mph - N/A   Overcast
1:55 PM 39.2 °F 31.2 °F 39.2 °F 100% 29.65 in 5.0 mi SSW 13.8 mph 18.4 mph N/A   Overcast
2:15 PM 37.4 °F 28.9 °F 37.4 °F 100% 29.65 in 5.0 mi SSW 13.8 mph - N/A   Overcast
2:35 PM 39.2 °F 32.5 °F 37.4 °F 93% 29.65 in 5.0 mi SSW 10.4 mph - N/A   Overcast
2:55 PM 39.2 °F 33.0 °F 39.2 °F 100% 29.65 in 5.0 mi SSW 9.2 mph - 0.01 in   Overcast
3:15 PM 39.2 °F 32.5 °F 39.2 °F 100% 29.65 in 6.0 mi SSW 10.4 mph - N/A   Overcast
3:35 PM 39.2 °F 32.0 °F 39.2 °F 100% 29.64 in 5.0 mi SSW 11.5 mph - N/A   Overcast
3:55 PM 41.0 °F 34.3 °F 39.2 °F 93% 29.64 in 7.0 mi SSW 11.5 mph - N/A   Overcast
4:15 PM 39.2 °F 33.0 °F 39.2 °F 100% 29.63 in 7.0 mi South 9.2 mph - N/A   Overcast
4:35 PM 39.2 °F 32.5 °F 37.4 °F 93% 29.62 in 8.0 mi SSW 10.4 mph - N/A   Mostly Cloudy
4:55 PM 39.2 °F 32.0 °F 37.4 °F 93% 29.62 in 7.0 mi South 11.5 mph - N/A   Mostly Cloudy
5:15 PM 39.2 °F 33.6 °F 37.4 °F 93% 29.62 in 8.0 mi SSW 8.1 mph - N/A   Mostly Cloudy
5:35 PM 39.2 °F 34.2 °F 37.4 °F 93% 29.63 in 9.0 mi SSW 6.9 mph - N/A   Mostly Cloudy
5:55 PM 39.2 °F 35.0 °F 37.4 °F 93% 29.63 in 9.0 mi SSW 5.8 mph - N/A   Overcast
6:15 PM 39.2 °F 35.0 °F 37.4 °F 93% 29.63 in 9.0 mi SSW 5.8 mph - N/A   Overcast
6:35 PM 39.2 °F 33.0 °F 37.4 °F 93% 29.64 in 8.0 mi SSW 9.2 mph - N/A   Overcast
6:55 PM 39.2 °F 33.0 °F 37.4 °F 93% 29.64 in 8.0 mi SSW 9.2 mph - N/A   Overcast
7:15 PM 37.4 °F 31.4 °F 37.4 °F 100% 29.64 in 9.0 mi SSW 8.1 mph - N/A   Scattered Clouds
7:35 PM 37.4 °F 32.1 °F 37.4 °F 100% 29.65 in 9.0 mi SSW 6.9 mph - N/A   Clear
7:55 PM 37.4 °F 32.1 °F 37.4 °F 100% 29.67 in 10.0 mi West 6.9 mph - N/A   Mostly Cloudy
8:15 PM 39.2 °F 37.0 °F 37.4 °F 93% 29.68 in 10.0 mi WNW 3.5 mph - N/A   Mostly Cloudy
8:35 PM 37.4 °F 32.8 °F 37.4 °F 100% 29.68 in 10.0 mi West 5.8 mph - N/A   Overcast
8:55 PM 37.4 °F 33.8 °F 37.4 °F 100% 29.70 in 10.0 mi West 4.6 mph - N/A   Mostly Cloudy
9:15 PM 37.4 °F 33.8 °F 37.4 °F 100% 29.71 in 10.0 mi West 4.6 mph - N/A   Overcast
9:35 PM 37.4 °F 34.9 °F 37.4 °F 100% 29.70 in 10.0 mi West 3.5 mph - N/A   Overcast
9:55 PM 37.4 °F - 37.4 °F 100% 29.71 in 10.0 mi Calm Calm - N/A   Scattered Clouds
10:15 PM 35.6 °F 32.8 °F 35.6 °F 100% 29.71 in 10.0 mi SW 3.5 mph - N/A   Partly Cloudy
10:35 PM 37.4 °F 33.8 °F 35.6 °F 93% 29.71 in 10.0 mi WSW 4.6 mph - N/A   Partly Cloudy
10:55 PM 37.4 °F 34.9 °F 35.6 °F 93% 29.71 in 10.0 mi WSW 3.5 mph - N/A   Partly Cloudy
11:15 PM 37.4 °F 33.8 °F 33.8 °F 87% 29.71 in 10.0 mi West 4.6 mph - N/A   Clear
11:35 PM 35.6 °F 31.7 °F 32.0 °F 87% 29.70 in 10.0 mi West 4.6 mph - N/A   Clear
11:55 PM 35.6 °F 31.7 °F 32.0 °F 87% 29.71 in 10.0 mi West 4.6 mph - N/A   Clear